When you browse on this site, cookies collect data to enhance your experience and personalize the content and advertising you see.
Visit our Privacy Policy to learn more. By continuing to use the site, you agree to this use of cookies and data.
  • In United Kingdom
  • List of Countries
  • For 7 days
  • Water Temperature
  • Satellite Maps
  • Weather Map
  • Weather Widgets
  • user-avatar
    Login

    Hourly Weather Birmingham

    Today, 24 May, Friday

    Time Temperature Precipitation Wind Pressure Humidity
    00:00 +10°C° 0 mm 3 mps 749 mmHg 84%
    01:00 +9°C° 0 mm 2 mps 749 mmHg 85%
    02:00 +9°C° 0 mm 2 mps 749 mmHg 86%
    03:00 +8°C° 0 mm 2 mps 749 mmHg 88%
    04:00 +9°C° 0 mm 2 mps 750 mmHg 86%
    05:00 +9°C° 0 mm 2 mps 750 mmHg 84%
    06:00 +10°C° 0 mm 2 mps 750 mmHg 83%
    07:00 +13°C° 0 mm 2 mps 750 mmHg 79%
    08:00 +13°C° 0 mm 3 mps 750 mmHg 76%
    09:00 +16°C° 0 mm 3 mps 751 mmHg 72%
    10:00 +17°C° 0 mm 3 mps 751 mmHg 71%
    11:00 +17°C° 0 mm 4 mps 751 mmHg 69%
    12:00 +18°C° 0 mm 4 mps 751 mmHg 67%
    13:00 +19°C° 0.1 mm 4 mps 750 mmHg 66%
    14:00 +19°C° 0.1 mm 4 mps 750 mmHg 64%
    15:00 +19°C° 0.1 mm 4 mps 750 mmHg 63%
    16:00 +19°C° 0.2 mm 4 mps 750 mmHg 66%
    17:00 +18°C° 0.2 mm 4 mps 750 mmHg 69%
    18:00 +18°C° 0.2 mm 3 mps 750 mmHg 71%
    19:00 +16°C° 0 mm 3 mps 750 mmHg 74%
    20:00 +13°C° 0 mm 3 mps 750 mmHg 76%
    21:00 +13°C° 0 mm 2 mps 750 mmHg 78%
    22:00 +12°C° 0 mm 2 mps 750 mmHg 80%
    23:00 +12°C° 0 mm 2 mps 751 mmHg 82%

    Tomorrow, 25 May, Saturday

    Time Temperature Precipitation Wind Pressure Humidity
    00:00 +10°C° 0 mm 2 mps 751 mmHg 84%
    01:00 +10°C° 0 mm 2 mps 751 mmHg 87%
    02:00 +9°C° 0 mm 2 mps 750 mmHg 89%
    03:00 +9°C° 0 mm 2 mps 750 mmHg 91%
    04:00 +10°C° 0 mm 2 mps 750 mmHg 90%
    05:00 +10°C° 0 mm 2 mps 751 mmHg 89%
    06:00 +11°C° 0 mm 3 mps 751 mmHg 89%
    07:00 +12°C° 0 mm 3 mps 751 mmHg 81%
    08:00 +13°C° 0 mm 3 mps 751 mmHg 74%
    09:00 +16°C° 0 mm 3 mps 751 mmHg 67%
    10:00 +17°C° 0 mm 3 mps 751 mmHg 62%
    11:00 +18°C° 0 mm 3 mps 751 mmHg 57%
    12:00 +19°C° 0 mm 2 mps 751 mmHg 52%
    13:00 +19°C° 0 mm 3 mps 751 mmHg 55%
    14:00 +20°C° 0 mm 3 mps 750 mmHg 57%
    15:00 +20°C° 0 mm 3 mps 750 mmHg 60%
    16:00 +19°C° 0.1 mm 3 mps 750 mmHg 65%
    17:00 +18°C° 0.1 mm 3 mps 750 mmHg 70%
    18:00 +18°C° 0.1 mm 3 mps 750 mmHg 75%
    19:00 +17°C° 0 mm 3 mps 750 mmHg 78%
    20:00 +16°C° 0 mm 3 mps 750 mmHg 81%
    21:00 +14°C° 0 mm 3 mps 750 mmHg 84%
    22:00 +13°C° 0 mm 3 mps 749 mmHg 85%
    23:00 +13°C° 0 mm 3 mps 749 mmHg 86%

    Day after tomorrow, 26 May, Sunday

    Time Temperature Precipitation Wind Pressure Humidity
    00:00 +13°C° 0 mm 3 mps 749 mmHg 87%
    01:00 +13°C° 0 mm 3 mps 748 mmHg 89%
    02:00 +13°C° 0 mm 3 mps 748 mmHg 91%
    03:00 +12°C° 0 mm 4 mps 748 mmHg 92%
    04:00 +13°C° 0 mm 4 mps 748 mmHg 91%
    05:00 +13°C° 0 mm 4 mps 747 mmHg 89%
    06:00 +13°C° 0 mm 4 mps 747 mmHg 88%
    07:00 +14°C° 0 mm 4 mps 747 mmHg 85%
    08:00 +15°C° 0 mm 5 mps 746 mmHg 81%
    09:00 +17°C° 0 mm 5 mps 746 mmHg 77%
    10:00 +16°C° 0.1 mm 5 mps 746 mmHg 81%
    11:00 +16°C° 0.1 mm 6 mps 746 mmHg 84%
    12:00 +15°C° 0.1 mm 6 mps 745 mmHg 87%
    13:00 +16°C° 0.2 mm 6 mps 745 mmHg 81%
    14:00 +17°C° 0.2 mm 7 mps 745 mmHg 76%
    15:00 +18°C° 0.2 mm 7 mps 745 mmHg 70%
    16:00 +17°C° 0.2 mm 7 mps 745 mmHg 71%
    17:00 +16°C° 0.2 mm 6 mps 745 mmHg 71%
    18:00 +15°C° 0.2 mm 6 mps 745 mmHg 72%
    19:00 +14°C° 0 mm 5 mps 745 mmHg 74%
    20:00 +12°C° 0 mm 4 mps 745 mmHg 75%
    21:00 +11°C° 0 mm 3 mps 746 mmHg 77%
    22:00 +10°C° 0 mm 3 mps 746 mmHg 79%
    23:00 +10°C° 0 mm 3 mps 746 mmHg 81%

    27 May, Monday

    Time Temperature Precipitation Wind Pressure Humidity
    00:00 +9°C° 0 mm 3 mps 746 mmHg 83%
    01:00 +9°C° 0 mm 3 mps 746 mmHg 85%
    02:00 +8°C° 0 mm 3 mps 746 mmHg 87%
    03:00 +8°C° 0 mm 3 mps 745 mmHg 89%
    04:00 +7°C° 0 mm 4 mps 745 mmHg 87%
    05:00 +8°C° 0 mm 4 mps 745 mmHg 84%
    06:00 +9°C° 0 mm 5 mps 746 mmHg 81%
    07:00 +10°C° 0.1 mm 5 mps 745 mmHg 78%
    08:00 +12°C° 0.1 mm 5 mps 745 mmHg 74%
    09:00 +13°C° 0.1 mm 6 mps 745 mmHg 71%
    10:00 +13°C° 0.3 mm 6 mps 745 mmHg 69%
    11:00 +13°C° 0.3 mm 6 mps 745 mmHg 68%
    12:00 +14°C° 0.3 mm 6 mps 745 mmHg 66%
    13:00 +14°C° 0.2 mm 6 mps 744 mmHg 68%
    14:00 +13°C° 0.2 mm 6 mps 744 mmHg 69%
    15:00 +13°C° 0.2 mm 6 mps 744 mmHg 71%
    16:00 +13°C° 0.3 mm 5 mps 743 mmHg 73%
    17:00 +12°C° 0.3 mm 5 mps 743 mmHg 75%
    18:00 +12°C° 0.3 mm 4 mps 743 mmHg 78%
    19:00 +11°C° 0.3 mm 4 mps 742 mmHg 80%
    20:00 +10°C° 0.3 mm 4 mps 742 mmHg 83%
    21:00 +9°C° 0.3 mm 3 mps 742 mmHg 86%
    22:00 +9°C° 0 mm 3 mps 742 mmHg 87%
    23:00 +8°C° 0 mm 3 mps 741 mmHg 88%

    28 May, Tuesday

    Time Temperature Precipitation Wind Pressure Humidity
    00:00 +7°C° 0 mm 2 mps 741 mmHg 89%
    01:00 +7°C° 0 mm 2 mps 741 mmHg 89%
    02:00 +7°C° 0 mm 2 mps 741 mmHg 90%
    03:00 +7°C° 0 mm 1 mps 741 mmHg 90%
    04:00 +7°C° 0 mm 2 mps 742 mmHg 90%
    05:00 +6°C° 0 mm 4 mps 743 mmHg 90%
    06:00 +7°C° 0 mm 5 mps 744 mmHg 90%
    07:00 +8°C° 0.1 mm 5 mps 745 mmHg 85%
    08:00 +8°C° 0.1 mm 5 mps 746 mmHg 80%
    09:00 +9°C° 0.1 mm 6 mps 747 mmHg 76%
    10:00 +9°C° 0 mm 6 mps 747 mmHg 70%
    11:00 +10°C° 0 mm 6 mps 748 mmHg 64%
    12:00 +11°C° 0 mm 6 mps 749 mmHg 58%
    13:00 +12°C° 0.1 mm 5 mps 749 mmHg 58%
    14:00 +12°C° 0.1 mm 5 mps 750 mmHg 58%
    15:00 +12°C° 0.1 mm 5 mps 750 mmHg 57%
    16:00 +12°C° 0.1 mm 4 mps 750 mmHg 62%
    17:00 +11°C° 0.1 mm 4 mps 751 mmHg 66%
    18:00 +10°C° 0.1 mm 4 mps 751 mmHg 70%
    19:00 +9°C° 0 mm 3 mps 752 mmHg 72%
    20:00 +8°C° 0 mm 3 mps 752 mmHg 74%
    21:00 +8°C° 0 mm 3 mps 753 mmHg 75%
    22:00 +7°C° 0 mm 3 mps 753 mmHg 77%
    23:00 +5°C° 0 mm 3 mps 753 mmHg 79%

    29 May, Wednesday

    Time Temperature Precipitation Wind Pressure Humidity
    00:00 +4°C° 0 mm 3 mps 753 mmHg 81%
    01:00 +4°C° 0 mm 3 mps 753 mmHg 83%
    02:00 +4°C° 0 mm 3 mps 753 mmHg 86%
    03:00 +3°C° 0 mm 3 mps 753 mmHg 88%
    04:00 +4°C° 0 mm 3 mps 753 mmHg 87%
    05:00 +5°C° 0 mm 3 mps 754 mmHg 85%
    06:00 +7°C° 0 mm 3 mps 754 mmHg 84%
    07:00 +8°C° 0 mm 3 mps 754 mmHg 77%
    08:00 +10°C° 0 mm 3 mps 754 mmHg 70%
    09:00 +11°C° 0 mm 4 mps 754 mmHg 64%
    10:00 +12°C° 0 mm 4 mps 754 mmHg 64%
    11:00 +12°C° 0 mm 4 mps 754 mmHg 63%
    12:00 +12°C° 0 mm 4 mps 753 mmHg 63%
    13:00 +13°C° 0 mm 4 mps 753 mmHg 62%
    14:00 +13°C° 0 mm 4 mps 753 mmHg 61%
    15:00 +14°C° 0 mm 4 mps 753 mmHg 60%
    16:00 +13°C° 0.1 mm 4 mps 753 mmHg 65%
    17:00 +12°C° 0.1 mm 4 mps 752 mmHg 69%
    18:00 +10°C° 0.1 mm 5 mps 752 mmHg 73%
    19:00 +10°C° 0.5 mm 4 mps 752 mmHg 78%
    20:00 +8°C° 0.5 mm 4 mps 752 mmHg 83%
    21:00 +8°C° 0.5 mm 4 mps 752 mmHg 88%
    22:00 +9°C° 0.1 mm 5 mps 751 mmHg 90%
    23:00 +10°C° 0.1 mm 5 mps 751 mmHg 91%
    Show more